Overview Statistics Trail Chart Weather Telemetry Raw packets
 

This is the latest recevied weather packets stored in our database for station/object N8BAP. If no packets are shown the sender has not sent any weather packets the latest 10 day(s).

<< 10 11 12 13 14 15 16 >>
Time Temp. Humidity Pressure Rain* Wind** Luminosity Snow
1788551580 35° C 51% 1020.4 hPa 0 mm - 169 W/m² -
1788551275 35° C 50% 1020.3 hPa 0 mm - 595 W/m² -
1788550974 34.44° C 54% 1020.2 hPa 0 mm - 608 W/m² -
1788550670 34.44° C 56% 1020.4 hPa 0 mm - 652 W/m² -
1788550365 34.44° C 60% 1020.4 hPa 0 mm - 693 W/m² -
1788550060 34.44° C 54% 1020.4 hPa 0 mm - 702 W/m² -
1788549756 34.44° C 54% 1020.5 hPa 0 mm - 407 W/m² -
1788549452 34.44° C 52% 1020.6 hPa 0 mm - 663 W/m² -
1788549149 34.44° C 53% 1020.5 hPa 0 mm - 666 W/m² -
1788548845 35° C 55% 1020.5 hPa 0 mm - 231 W/m² -
1788548540 34.44° C 54% 1020.7 hPa 0 mm - 685 W/m² -
1788548236 34.44° C 56% 1020.9 hPa 0 mm - 688 W/m² -
1788547931 34.44° C 54% 1020.5 hPa 0 mm - 735 W/m² -
1788547630 34.44° C 52% 1020.8 hPa 0 mm - 721 W/m² -
1788547326 34.44° C 55% 1020.6 hPa 0 mm - 666 W/m² -
1788547021 34.44° C 55% 1020.9 hPa 0 mm - 673 W/m² -
1788546715 33.89° C 54% 1020.7 hPa 0 mm - 665 W/m² -
1788546411 34.44° C 54% 1021 hPa 0 mm - 225 W/m² -
1788546105 34.44° C 55% 1021.1 hPa 0 mm - 701 W/m² -
1788545801 33.89° C 56% 1021.2 hPa 0 mm - 644 W/m² -
1788545496 33.89° C 55% 1021.2 hPa 0 mm - 203 W/m² -
1788545191 33.89° C 52% 1021.2 hPa 0 mm - 679 W/m² -
1788544887 33.89° C 53% 1021.3 hPa 0 mm - 698 W/m² -
1788544585 33.89° C 55% 1021.2 hPa 0 mm - 675 W/m² -
1788544284 33.89° C 53% 1021.3 hPa 0 mm - 685 W/m² -

* Rain latest hour (hover to see other rain measurements)
** Current wind speed in m/s (hover to see current wind gust speed)